Overview Statistics Trail Chart Weather Telemetry Raw packets
 

This is the latest recevied weather packets stored in our database for station/object S51UL-6. If no packets are shown the sender has not sent any weather packets the latest 10 day(s).

<< 68 69 70 71 72 73 74 >>
Time Temp. Humidity Pressure Rain* Wind** Luminosity Snow
1788020242 23.89° C 53% 1017 hPa 1.52 mm - - -
1788019642 24.44° C 52% 1017 hPa 1.02 mm - - -
1788019043 24.44° C 51% 1017 hPa 0.51 mm - - -
1788018142 24.44° C 52% 1017.2 hPa 0.51 mm - - -
1788016942 25° C 51% 1017.1 hPa 0 mm - - -
1788016645 25° C 52% 1017.2 hPa 0.51 mm - - -
1788016342 25.56° C 51% 1017.3 hPa 0.51 mm - - -
1788016042 25.56° C 52% 1017.4 hPa 0.51 mm - - -
1788015742 25.56° C 51% 1017.5 hPa 0.51 mm - - -
1788015443 26.11° C 51% 1017.5 hPa 0.51 mm - - -
1788014543 26.67° C 51% 1017.4 hPa 0.51 mm - - -
1788014243 26.67° C 51% 1017.3 hPa 0.51 mm - - -
1788013943 26.67° C 53% 1017.4 hPa 0.51 mm - - -
1788013643 26.67° C 53% 1017.5 hPa 0.51 mm - - -
1788013043 26.11° C 55% 1017.7 hPa 0 mm - - -
1788012447 25.56° C 56% 1017.7 hPa 0 mm - - -
1788012143 25° C 58% 1017.9 hPa 0 mm - - -
1788011843 25° C 57% 1018 hPa 0 mm - - -
1788011243 25° C 57% 1017.9 hPa 0 mm - - -
1788010943 25° C 56% 1018 hPa 0 mm - - -
1788010643 25° C 56% 1018 hPa 0 mm - - -
1788009745 25.56° C 57% 1018 hPa 0 mm - - -
1788009147 25.56° C 56% 1018.4 hPa 0 mm - - -
1788008844 25.56° C 58% 1018.2 hPa 0 mm - - -
1788008544 25° C 59% 1018.2 hPa 0 mm - - -

* Rain latest hour (hover to see other rain measurements)
** Current wind speed in m/s (hover to see current wind gust speed)